NILESAT 201

Last updated on Sun Apr 12 2026 00:02:52 GMT+0000 (Coordinated Universal Time)

1 36830U 10037A 26101.30543615 -.00000056 00000+0 00000+0 0 9998 2 36830 0.0184 166.0873 0003068 238.7621 257.6491 1.00272786 57708
UTC large
Height (km)
Speed (km/s)
/
Latitude / Longitude
Inclination (degrees)
Orbital Period (minutes)
Azimuth
Elevation
Range (km)
Doppler Factor

Next 0 passes for location: London (51.5072 / 0.1276)

Sorry there are no passes over London.